SCOUT X-4 DEB, 732

Orbit data source: Space-Track

SCOUT X-4 DEB, 732 is space debris in LEO originally from a launch on Thu, 19 Dec 1963 UTC launched from the Air Force Western Test Range (AFWTR). Debris objects in space refer to the collection of defunct objects orbiting the Earth. Examples of debris include non-operational satellites, rocket bodies, and fragments generated from explosions, collisions, or faulty payload assembly.

Loading next visibility...
SCOUT X-4 DEB details
Identifier
732, 1963-053H
Orbit
LEO
Last TLE update17 hours ago
Origin
Flag of USNASA LaRC (US)
ManufacturerUnknown
MissionSpacecraft
Bus & MotorUnknown
MassUnknown
Launch date (UTC)
1963-12-19 (61 years ago)
Launch vehicleUnknown
Launch site
Air Force Western Test Range (AFWTR)
Object type
Payload
Rocket body
Debris
Shape & HBRUnknown
Radar Cross SectionSmall (<0.1 m²)

Expand to show TLE details & history

TLE from 17 hours ago
0 SCOUT X-4 DEB
1 00732U 63053H   24356.56043310  .00013659  00000-0  44728-2 0  9992
2 00732  78.5604 185.0534 0452011 356.4414   3.3550 13.93153861899170
Epoch: 2024-12-21T13:27Z
Definitive object data (Epoch: 2024-12-21T13:27:01.419Z)
Latitude0.00001°
Longitude-107.31235°
Altitude591.169 km
Speed7.733 km/s
True Right ascension12h 20m 12s
True Declination0° 00' 00"
Sunlit
Object was in daylight at TLE epoch
Visualization TLE readout
Latitude-74.46985°
Longitude118.24052°
Altitude960.798 km
Speed7.362 km/s
Apparent Right ascension18h 25m 29s
Apparent Declination-73° 23' 35"
Sunlit
Object is in daylight
Visualization observer readout
Local Sidereal Time05:18:29
Azimuth188.376° SSW
Elevation-55.569°
Doppler factor1
Orbital elements
Apogee altitude1,244.589 km
Perigee altitude585.279 km
Semi-major axis7,293.071 km
Eccentricity0.0452011
Inclination78.5604°
RAAN185.0534°
Arg. of periapsis356.4414°
True anomaly3.6762°
Mean anomaly3.355°
Eccentric anomaly3.51372°
Mean motion3.4848 °/min
BSTAR0.0044728
Orbital period103.31 mins
Loading maneuver chart data...
Loading historical data...
Loading historical data...
Loading historical data...
Loading historical data...
Loading historical data...
Loading historical data...
Loading historical data...

SCOUT X-4 DEB Visibility forecast

Observer location: undefined°, undefined

Span
Click to sort rows by Start time (UTC) header in descending order
Start Az.
Max El. time (UTC)
Max El. Az.
Max El.
End time (UTC)
End Az.
8 mins2024-12-22 13:41:46.290Z189.156° SSW2024-12-22 13:45:46.290Z39.772° NE44.522°2024-12-22 13:49:46.290Z14.124° NNE
8 mins2024-12-22 22:45:46.290Z29.091° NE2024-12-22 22:48:46.290Z58.627° ENE19.025°2024-12-22 22:53:46.290Z104.036° ESE
13 mins2024-12-23 00:28:46.290Z344.092° N2024-12-23 00:34:46.290Z234.283° WSW44.501°2024-12-23 00:41:46.290Z174.319° S
4 mins2024-12-23 02:16:46.290Z288.526° WNW2024-12-23 02:18:46.290Z271.215° WNW13.231°2024-12-23 02:20:46.290Z254.801° W
|